EW8543 Weather Reports


Display with metric or nautical units.
time (UTC)temp
F
wind
direction
speed
MPH
gust
MPH
rain 1hr
in
rain 24hr
in
rain mn
in
humidity
%
barometer
mb
20260508093033 61 90 2.0 8.0 0.00 0.00 0.00 68 1018.4
20260508092538 61 85 1.0 8.0 0.00 0.00 0.00 68 1018.4
20260508092047 60 146 2.0 6.0 0.00 0.00 0.00 69 1018.3
20260508091535 59 121 2.0 8.0 0.00 0.00 0.00 70 1018.3
20260508091045 59 62 2.0 8.0 0.00 0.00 0.00 70 1018.3
20260508090533 59 113 1.0 6.0 0.00 0.00 0.00 71 1018.4
20260508090031 58 128 1.0 7.0 0.00 0.00 0.00 73 1018.4
20260508085539 58 111 2.0 7.0 0.00 0.00 0.00 73 1018.4
20260508085048 58 60 2.0 6.0 0.00 0.00 0.00 73 1018.4
20260508084557 58 112 2.0 8.0 0.00 0.00 0.00 74 1018.4
20260508084041 57 123 1.0 7.0 0.00 0.00 0.00 74 1018.3
20260508083530 57 120 1.0 7.0 0.00 0.00 0.00 75 1018.3
20260508083038 57 46 3.0 8.0 0.00 0.00 0.00 76 1018.3
20260508082547 57 108 2.0 8.0 0.00 0.00 0.00 76 1018.4
20260508082035 56 118 1.0 9.0 0.00 0.00 0.00 77 1018.2
20260508081606 56 39 4.0 9.0 0.00 0.00 0.00 77 1018.2
20260508081032 56 115 2.0 7.0 0.00 0.00 0.00 77 1018.2
20260508080540 56 116 2.0 7.0 0.00 0.00 0.00 77 1018.2
20260508080039 56 70 3.0 7.0 0.00 0.00 0.00 78 1018.3
20260508075547 55 106 3.0 8.0 0.00 0.00 0.00 78 1018.3
20260508075031 55 126 2.0 6.0 0.00 0.00 0.00 78 1018.3
20260508074539 55 148 2.0 6.0 0.00 0.00 0.00 78 1018.2
20260508074048 55 107 2.0 8.0 0.00 0.00 0.00 78 1018.2
20260508073536 55 66 3.0 8.0 0.00 0.00 0.00 79 1018.2
20260508073045 54 96 2.0 9.0 0.00 0.00 0.00 80 1018.2
20260508072545 54 103 2.0 9.0 0.00 0.00 0.00 80 1018.2
20260508072034 54 51 3.0 7.0 0.00 0.00 0.00 80 1018.2
20260508071602 54 81 2.0 9.0 0.00 0.00 0.00 80 1018.2
20260508071046 54 137 4.0 9.0 0.00 0.00 0.00 81 1018.2
20260508070550 54 33 3.0 9.0 0.00 0.00 0.00 82 1018.1
20260508070031 54 61 4.0 8.0 0.00 0.00 0.00 82 1018.1
20260508065540 54 66 2.0 9.0 0.00 0.00 0.00 83 1018.0
20260508065047 53 88 3.0 9.0 0.00 0.00 0.00 83 1018.0
20260508064535 53 67 3.0 7.0 0.00 0.00 0.00 83 1018.0
20260508064041 53 85 2.0 8.0 0.00 0.00 0.00 84 1017.9
20260508063550 53 71 1.0 4.0 0.00 0.00 0.00 84 1017.9
20260508063036 53 85 2.0 8.0 0.00 0.00 0.00 85 1017.9
20260508062545 52 90 1.0 8.0 0.00 0.00 0.00 85 1017.8
20260508062030 52 72 2.0 6.0 0.00 0.00 0.00 85 1017.8
20260508061539 52 71 2.0 6.0 0.00 0.00 0.00 85 1017.8
20260508061028 52 105 1.0 6.0 0.00 0.00 0.00 85 1017.8
20260508060538 52 70 2.0 7.0 0.00 0.00 0.00 85 1017.7
20260508060038 52 138 2.0 7.0 0.00 0.00 0.00 85 1017.7
20260508055601 52 74 3.0 8.0 0.00 0.00 0.00 85 1017.8
20260508055045 52 101 3.0 9.0 0.00 0.00 0.00 85 1017.8
20260508054554 52 69 3.0 9.0 0.00 0.00 0.00 85 1017.7
20260508054041 52 89 2.0 9.0 0.00 0.00 0.00 86 1017.7
20260508053547 52 90 3.0 9.0 0.00 0.00 0.00 86 1017.7
20260508053035 52 73 3.0 6.0 0.00 0.00 0.00 86 1017.6
20260508052608 52 74 3.0 6.0 0.00 0.00 0.00 86 1017.6
20260508052035 52 84 2.0 6.0 0.00 0.00 0.00 85 1017.5
20260508051545 52 67 1.0 9.0 0.00 0.00 0.00 85 1017.5
20260508051028 52 105 3.0 9.0 0.00 0.00 0.00 85 1017.4
20260508050536 52 111 4.0 9.0 0.00 0.00 0.00 85 1017.4
20260508050035 52 61 2.0 9.0 0.00 0.00 0.00 85 1017.4
20260508045544 52 135 1.0 8.0 0.00 0.00 0.00 85 1017.3
20260508045029 52 106 2.0 8.0 0.00 0.00 0.00 84 1017.3
20260508044534 52 88 1.0 9.0 0.00 0.00 0.00 85 1017.2
20260508044040 52 119 1.0 10.0 0.00 0.00 0.00 84 1017.3
20260508043528 52 77 4.0 10.0 0.00 0.00 0.00 84 1017.2
20260508043036 52 115 1.0 4.0 0.00 0.00 0.00 84 1017.2
20260508042542 52 66 1.0 6.0 0.00 0.00 0.00 84 1017.2
20260508042030 52 63 3.0 6.0 0.00 0.00 0.00 84 1017.2
20260508041540 53 56 2.0 6.0 0.00 0.00 0.00 84 1017.1
20260508041028 53 121 1.0 7.0 0.00 0.00 0.00 84 1017.1
20260508040537 53 82 2.0 7.0 0.00 0.00 0.00 83 1017.1
20260508040036 53 73 2.0 8.0 0.00 0.00 0.00 83 1017.1
20260508035545 53 80 2.0 8.0 0.00 0.00 0.00 83 1017.1
20260508035034 53 58 2.0 7.0 0.00 0.00 0.00 83 1017.1
20260508034543 53 66 2.0 7.0 0.00 0.00 0.00 83 1017.0
20260508034047 53 63 2.0 5.0 0.00 0.00 0.00 83 1017.0
20260508033532 53 53 2.0 5.0 0.00 0.00 0.00 82 1017.0
20260508033041 53 46 3.0 5.0 0.00 0.00 0.00 82 1017.1
20260508032550 53 69 2.0 6.0 0.00 0.00 0.00 82 1017.0
20260508032037 53 86 2.0 6.0 0.00 0.00 0.00 82 1017.1
20260508031601 53 67 2.0 5.0 0.00 0.00 0.00 82 1017.0
20260508031047 53 108 1.0 3.0 0.00 0.00 0.00 82 1017.0
20260508030534 53 70 2.0 3.0 0.00 0.00 0.00 82 1017.0
20260508030035 53 65 2.0 3.0 0.00 0.00 0.00 82 1017.0
20260508025603 54 61 1.0 3.0 0.00 0.00 0.00 81 1017.0
20260508025027 54 61 0.0 3.0 0.00 0.00 0.00 81 1017.0
20260508024537 54 99 1.0 5.0 0.00 0.00 0.00 81 1017.0
20260508024028 54 91 3.0 5.0 0.00 0.00 0.00 80 1017.0
20260508023557 54 64 2.0 5.0 0.00 0.00 0.00 80 1016.9
20260508023042 54 77 2.0 5.0 0.00 0.00 0.00 80 1017.0
20260508022530 54 52 2.0 4.0 0.00 0.00 0.00 80 1017.0
20260508022041 54 74 2.0 5.0 0.00 0.00 0.00 80 1017.0
20260508021549 54 74 1.0 5.0 0.00 0.00 0.00 79 1017.0
20260508021056 54 53 0.0 3.0 0.00 0.00 0.00 79 1017.0
20260508020605 54 53 0.0 3.0 0.00 0.00 0.00 79 1017.1
20260508020046 54 53 1.0 4.0 0.00 0.00 0.00 79 1017.1
20260508015533 54 53 1.0 4.0 0.00 0.00 0.00 79 1017.0
20260508015041 54 55 1.0 3.0 0.00 0.00 0.00 79 1017.0
20260508014545 54 60 1.0 3.0 0.00 0.00 0.00 79 1017.0
20260508014033 54 60 1.0 4.0 0.00 0.00 0.00 79 1016.9
20260508013541 54 55 1.0 4.0 0.00 0.00 0.00 78 1017.0
20260508013046 54 55 2.0 3.0 0.00 0.00 0.00 78 1017.0
20260508012537 54 55 1.0 3.0 0.00 0.00 0.00 78 1017.0
20260508012042 54 55 1.0 4.0 0.00 0.00 0.00 78 1017.0
20260508011530 54 55 2.0 4.0 0.00 0.00 0.00 78 1017.0
20260508011037 54 74 1.0 4.0 0.00 0.00 0.00 78 1017.0
20260508010527 54 74 1.0 5.0 0.00 0.00 0.00 77 1017.0
20260508010029 54 63 1.0 5.0 0.00 0.00 0.00 77 1017.0
20260508005535 54 50 1.0 5.0 0.00 0.00 0.00 77 1017.0
20260508005106 54 80 2.0 5.0 0.00 0.00 0.00 77 1017.0
20260508004534 55 62 0.0 2.0 0.00 0.00 0.00 77 1017.0
20260508004107 55 62 0.0 3.0 0.00 0.00 0.00 77 1017.0
20260508003532 55 62 1.0 4.0 0.00 0.00 0.00 77 1017.0
20260508003041 55 62 1.0 4.0 0.00 0.00 0.00 76 1017.1
20260508002531 55 62 1.0 4.0 0.00 0.00 0.00 76 1017.1
20260508002040 55 62 1.0 4.0 0.00 0.00 0.00 76 1017.1
20260508001529 55 36 1.0 2.0 0.00 0.00 0.00 76 1017.1
20260508001032 55 36 1.0 2.0 0.00 0.00 0.00 76 1017.2
20260508000542 55 36 0.0 2.0 0.00 0.00 0.00 76 1017.2
20260508000044 55 36 0.0 3.0 0.00 0.00 0.00 76 1017.2
20260507235534 55 36 1.0 3.0 0.00 0.00 0.00 76 1017.2
20260507235043 55 36 1.0 3.0 0.00 0.00 0.00 76 1017.2
20260507234527 55 36 1.0 3.0 0.00 0.00 0.00 76 1017.3
20260507234034 55 36 0.0 3.0 0.00 0.00 0.00 76 1017.3
20260507233544 55 36 1.0 4.0 0.00 0.00 0.00 75 1017.3
20260507233034 55 36 2.0 4.0 0.00 0.00 0.00 75 1017.3
20260507232543 55 36 1.0 3.0 0.00 0.00 0.00 75 1017.3
20260507232027 55 36 2.0 3.0 0.00 0.00 0.00 75 1017.3
20260507231556 55 36 1.0 3.0 0.00 0.00 0.00 74 1017.3
20260507231043 55 36 1.0 4.0 0.00 0.00 0.00 75 1017.3
20260507230532 55 36 2.0 4.0 0.00 0.00 0.00 74 1017.3
20260507230034 55 52 1.0 4.0 0.00 0.00 0.00 74 1017.4
20260507225538 55 57 2.0 4.0 0.00 0.00 0.00 74 1017.4
20260507225045 55 47 2.0 6.0 0.00 0.00 0.00 74 1017.3
20260507224554 55 47 3.0 6.0 0.00 0.00 0.00 73 1017.4
20260507224042 56 63 2.0 5.0 0.00 0.00 0.00 73 1017.4
20260507223527 56 43 3.0 5.0 0.00 0.00 0.00 73 1017.4
20260507223035 56 31 1.0 5.0 0.00 0.00 0.00 73 1017.5
20260507222544 56 23 2.0 5.0 0.00 0.00 0.00 73 1017.5
20260507222053 56 57 2.0 5.0 0.00 0.00 0.00 72 1017.5
20260507221543 56 21 2.0 6.0 0.00 0.00 0.00 72 1017.4
20260507221028 56 37 1.0 6.0 0.00 0.00 0.00 72 1017.5
20260507220539 56 37 2.0 6.0 0.00 0.00 0.00 71 1017.4
20260507220040 56 31 2.0 6.0 0.00 0.00 0.00 71 1017.4
20260507215528 56 47 2.0 6.0 0.00 0.00 0.00 71 1017.4
20260507215038 56 53 2.0 5.0 0.00 0.00 0.00 71 1017.3
20260507214603 56 36 2.0 5.0 0.00 0.00 0.00 71 1017.4
20260507214031 56 40 2.0 5.0 0.00 0.00 0.00 71 1017.3
20260507213540 56 49 2.0 6.0 0.00 0.00 0.00 72 1017.4
20260507213029 55 40 3.0 6.0 0.00 0.00 0.00 74 1017.3
20260507212534 55 346 1.0 2.0 0.00 0.00 0.00 79 1017.4
20260507212045 56 346 0.0 1.0 0.00 0.00 0.00 80 1017.4
20260507211535 56 346 0.0 1.0 0.00 0.00 0.00 81 1017.4
20260507211044 56 346 0.0 1.0 0.00 0.00 0.00 81 1017.4
20260507210553 56 346 0.0 1.0 0.00 0.00 0.00 81 1017.3
20260507210031 56 346 0.0 2.0 0.00 0.00 0.00 81 1017.3
20260507205559 56 346 1.0 2.0 0.00 0.00 0.00 82 1017.3
20260507205028 55 346 0.0 2.0 0.00 0.00 0.00 82 1017.4
20260507204536 56 346 1.0 2.0 0.00 0.00 0.00 82 1017.4
20260507204040 55 346 1.0 2.0 0.00 0.00 0.00 83 1017.3
20260507203529 55 346 0.0 2.0 0.00 0.00 0.00 83 1017.2
20260507203036 55 346 1.0 3.0 0.00 0.00 0.00 83 1017.1
20260507202544 55 346 1.0 3.0 0.00 0.00 0.00 83 1017.1
20260507202033 56 346 0.0 2.0 0.00 0.00 0.00 82 1017.1
20260507201537 56 346 0.0 2.0 0.00 0.00 0.00 83 1017.0
20260507201026 55 346 1.0 2.0 0.00 0.00 0.00 83 1017.0
20260507200556 55 346 1.0 3.0 0.00 0.00 0.00 83 1017.0
20260507200037 55 346 1.0 3.0 0.00 0.00 0.00 82 1016.9
20260507195602 55 346 1.0 4.0 0.00 0.00 0.00 83 1016.9
20260507195031 55 346 1.0 6.0 0.00 0.00 0.00 82 1016.8
20260507194539 55 339 2.0 6.0 0.00 0.00 0.00 83 1016.8
20260507194027 55 332 2.0 5.0 0.00 0.00 0.00 83 1016.7
20260507193535 55 16 3.0 6.0 0.00 0.00 0.00 83 1016.7
20260507193100 55 5 2.0 6.0 0.00 0.00 0.00 83 1016.6
20260507192527 55 338 4.0 6.0 0.00 0.00 0.00 83 1016.7
20260507192037 55 360 4.0 6.0 0.00 0.00 0.00 83 1016.7
20260507191526 55 329 2.0 9.0 0.00 0.00 0.00 83 1016.7
20260507191033 55 320 3.0 9.0 0.00 0.00 0.00 83 1016.7
20260507190538 55 347 2.0 5.0 0.00 0.00 0.00 83 1016.7
20260507190041 55 11 3.0 10.0 0.00 0.00 0.00 82 1016.7
20260507185530 55 326 4.0 10.0 0.00 0.00 0.00 82 1016.6
20260507185034 55 5 3.0 6.0 0.00 0.00 0.00 82 1016.6
20260507184541 55 327 3.0 8.0 0.00 0.00 0.00 81 1016.7
20260507184026 55 360 4.0 8.0 0.00 0.00 0.00 81 1016.7
20260507183535 55 12 3.0 8.0 0.00 0.00 0.00 81 1016.7
20260507183043 55 10 2.0 7.0 0.00 0.00 0.00 80 1016.7
20260507182531 55 5 3.0 6.0 0.00 0.00 0.00 80 1016.6
20260507182039 56 25 3.0 6.0 0.00 0.00 0.00 80 1016.7
20260507181605 55 5 2.0 9.0 0.00 0.00 0.00 80 1016.7
20260507181033 55 360 4.0 11.0 0.00 0.00 0.00 80 1016.7
20260507180543 55 338 5.0 11.0 0.00 0.00 0.00 79 1016.6
20260507180041 55 355 3.0 10.0 0.00 0.00 0.00 79 1016.7
20260507175545 55 24 2.0 9.0 0.00 0.00 0.00 78 1016.6
20260507175033 56 343 4.0 10.0 0.00 0.00 0.00 77 1016.7
20260507174542 56 5 4.0 10.0 0.00 0.00 0.00 77 1016.6
20260507174051 56 21 4.0 9.0 0.00 0.00 0.00 77 1016.7
20260507173539 56 360 5.0 9.0 0.00 0.00 0.00 76 1016.7
20260507173042 56 347 3.0 9.0 0.00 0.00 0.00 76 1016.7
20260507172531 56 55 4.0 10.0 0.00 0.00 0.00 76 1016.6
20260507172037 56 329 3.0 12.0 0.00 0.00 0.00 77 1016.7
20260507171527 57 319 4.0 12.0 0.00 0.00 0.00 74 1016.7
20260507171036 57 355 5.0 11.0 0.00 0.00 0.00 74 1016.7
20260507170541 57 360 3.0 10.0 0.00 0.00 0.00 75 1016.7
20260507170044 57 19 4.0 10.0 0.00 0.00 0.00 74 1016.7
20260507165532 57 5 5.0 10.0 0.00 0.00 0.00 74 1016.7
20260507165040 57 341 3.0 10.0 0.00 0.00 0.00 74 1016.7
20260507164528 57 336 5.0 11.0 0.00 0.00 0.00 74 1016.6
20260507164033 57 340 5.0 11.0 0.00 0.00 0.00 73 1016.6
20260507163543 57 19 2.0 11.0 0.00 0.00 0.00 73 1016.6
20260507163028 57 260 5.0 11.0 0.00 0.00 0.00 72 1016.7
20260507162537 57 39 4.0 9.0 0.00 0.00 0.00 72 1016.7
20260507162104 57 21 4.0 11.0 0.00 0.00 0.00 72 1016.7
20260507161533 57 332 5.0 12.0 0.00 0.00 0.00 72 1016.7
20260507161042 57 334 4.0 12.0 0.00 0.00 0.00 73 1016.7
20260507160531 57 339 5.0 11.0 0.00 0.00 0.00 72 1016.6
20260507160033 57 15 6.0 12.0 0.00 0.00 0.00 72 1016.7
20260507155539 58 9 6.0 12.0 0.00 0.00 0.00 71 1016.6
20260507155027 58 62 4.0 11.0 0.00 0.00 0.00 69 1016.7
20260507154556 58 109 4.0 12.0 0.00 0.00 0.00 70 1016.7
20260507154043 58 23 5.0 12.0 0.00 0.00 0.00 70 1016.7
20260507153548 58 21 6.0 11.0 0.00 0.00 0.00 68 1016.6
20260507153055 59 11 4.0 12.0 0.00 0.00 0.00 68 1016.7
20260507152543 61 350 5.0 12.0 0.00 0.00 0.00 65 1016.6
20260507152051 60 9 5.0 11.0 0.00 0.00 0.00 67 1016.7
20260507151555 60 355 4.0 10.0 0.00 0.00 0.00 68 1016.7
20260507151040 58 38 3.0 10.0 0.00 0.00 0.00 68 1016.6
20260507150529 59 329 3.0 11.0 0.00 0.00 0.00 68 1016.6
20260507150029 59 30 5.0 11.0 0.00 0.00 0.00 68 1016.6
20260507145539 59 355 5.0 13.0 0.00 0.00 0.00 67 1016.5
20260507145042 59 15 6.0 10.0 0.00 0.00 0.00 67 1016.6
20260507144530 59 5 5.0 10.0 0.00 0.00 0.00 67 1016.7
20260507144038 58 252 5.0 10.0 0.00 0.00 0.00 68 1016.6
20260507143528 58 349 5.0 11.0 0.00 0.00 0.00 69 1016.6
20260507143038 58 37 5.0 11.0 0.00 0.00 0.00 67 1016.7
20260507142542 58 346 6.0 11.0 0.00 0.00 0.00 66 1016.7
20260507142029 58 5 4.0 12.0 0.00 0.00 0.00 68 1016.7
20260507141538 58 277 5.0 12.0 0.00 0.00 0.00 66 1016.7
20260507141044 59 336 4.0 11.0 0.00 0.00 0.00 65 1016.7
20260507140533 58 28 3.0 11.0 0.00 0.00 0.00 66 1016.8
20260507140032 58 360 3.0 10.0 0.00 0.00 0.00 67 1016.9
20260507135541 58 350 6.0 15.0 0.00 0.00 0.00 65 1016.9
20260507135029 57 5 7.0 15.0 0.00 0.00 0.00 64 1016.9
20260507134536 57 5 6.0 11.0 0.00 0.00 0.00 66 1017.0
20260507134106 58 327 6.0 12.0 0.00 0.00 0.00 63 1016.9
20260507133553 59 324 7.0 11.0 0.00 0.00 0.00 61 1017.0
20260507133040 60 300 7.0 13.0 0.00 0.00 0.00 61 1016.9
20260507132527 59 12 4.0 14.0 0.00 0.00 0.00 64 1016.8
20260507132036 58 5 7.0 16.0 0.00 0.00 0.00 64 1016.9
20260507131542 58 22 9.0 16.0 0.00 0.00 0.00 65 1016.9
20260507131029 59 343 6.0 15.0 0.00 0.00 0.00 63 1016.8
20260507130558 59 342 6.0 13.0 0.00 0.00 0.00 63 1016.9
20260507130058 58 11 5.0 14.0 0.00 0.00 0.00 65 1016.9
20260507125541 58 355 7.0 14.0 0.00 0.00 0.00 65 1016.9
20260507125030 59 338 6.0 11.0 0.00 0.00 0.00 64 1016.8
20260507124539 57 265 5.0 16.0 0.00 0.00 0.00 64 1016.7
20260507124029 58 336 7.0 16.0 0.00 0.00 0.00 65 1016.8
20260507123538 58 355 8.0 13.0 0.00 0.00 0.00 65 1016.7
20260507123041 58 355 5.0 12.0 0.00 0.00 0.00 67 1016.7
20260507122529 57 355 6.0 13.0 0.00 0.00 0.00 69 1016.8
20260507122036 56 28 6.0 14.0 0.00 0.00 0.00 69 1016.8
20260507121526 57 351 9.0 14.0 0.00 0.00 0.00 68 1016.8
20260507121032 57 261 6.0 13.0 0.00 0.00 0.00 67 1016.8
20260507120537 57 324 7.0 15.0 0.00 0.00 0.00 67 1016.8
20260507120039 57 270 8.0 15.0 0.00 0.00 0.00 67 1016.7
20260507115528 58 327 7.0 14.0 0.00 0.00 0.00 67 1016.7
20260507115036 58 306 6.0 11.0 0.00 0.00 0.00 67 1016.7
20260507114559 57 11 6.0 11.0 0.00 0.00 0.00 64 1016.7
20260507114026 58 331 7.0 11.0 0.00 0.00 0.00 63 1016.7
20260507113536 58 9 7.0 11.0 0.00 0.00 0.00 63 1016.7
20260507113043 58 9 7.0 12.0 0.00 0.00 0.00 64 1016.7
20260507112533 58 309 6.0 12.0 0.00 0.00 0.00 63 1016.7
20260507112103 58 360 7.0 11.0 0.00 0.00 0.00 63 1016.8
20260507111531 58 336 5.0 11.0 0.00 0.00 0.00 62 1016.8
20260507111038 58 325 6.0 11.0 0.00 0.00 0.00 62 1016.7
20260507110526 58 5 7.0 11.0 0.00 0.00 0.00 62 1016.7
20260507110025 58 355 7.0 11.0 0.00 0.00 0.00 61 1016.7
20260507105529 58 5 5.0 8.0 0.00 0.00 0.00 61 1016.7
20260507105036 58 360 4.0 9.0 0.00 0.00 0.00 63 1016.8
20260507104525 58 328 5.0 9.0 0.00 0.00 0.00 61 1016.8
20260507104054 58 5 4.0 10.0 0.00 0.00 0.00 62 1016.8
20260507103538 57 13 5.0 10.0 0.00 0.00 0.00 63 1016.8
20260507103027 57 327 5.0 10.0 0.00 0.00 0.00 65 1016.8
20260507102535 57 313 5.0 10.0 0.00 0.00 0.00 64 1016.8
20260507102042 57 5 5.0 9.0 0.00 0.00 0.00 62 1016.8
20260507101530 57 11 4.0 10.0 0.00 0.00 0.00 64 1016.8
20260507101033 57 326 5.0 12.0 0.00 0.00 0.00 64 1016.8
20260507100543 57 318 7.0 12.0 0.00 0.00 0.00 65 1016.8
20260507100043 57 29 6.0 10.0 0.00 0.00 0.00 63 1016.7
20260507095533 57 342 4.0 11.0 0.00 0.00 0.00 64 1016.8
20260507095039 57 321 6.0 12.0 0.00 0.00 0.00 63 1016.7
20260507094544 57 351 6.0 12.0 0.00 0.00 0.00 63 1016.6
20260507094032 57 262 5.0 10.0 0.00 0.00 0.00 63 1016.6
20260507093601 57 298 5.0 13.0 0.00 0.00 0.00 64 1016.5